Weather in Sergokala

Russia / Republic of Dagestan     42°27′15″N   47°39′46″E
temp.,
°C
wind,
m/s
gust,
m/s
humid.,
%
clouds,
%
prec.,
mm/h
press.,
hPa
HPBL,
m
19 january, tue
tue1900:00−1n6786100 0.6 1015485
03:00−1n3387100 0.9 1016280
06:00−2nne128592 0.1 1018128
09:00−2n448695 0.3 1020317
12:00−1n3376100 0.2 1020456
15:00−1n3369100 0.4 1019668
18:00−1wsw1170100 0.1 1021187
21:00−1sw1178100 0.1 1021106
20 january, wed
wed2000:00−1e1178100 0.0 102297
03:00−2ese128798 0.1 1021235
06:00−3s0194100 0.3 1021104
09:00−2nnw1295100 1.8 1022190
12:00−1n3496100 1.8 1021338
15:00−1nne2398100 4.3 1021286
18:00−2nne3496100 2.8 1024265
21:00−3nnw1298100 4.4 102593
21 january, thu
thu2100:00−3wnw2397100 1.5 1026179
03:00−3wnw3493100 3.7 1026182
06:00−4wnw2388100 0.9 1028135
09:00−4nw358291 0.9 1031288
12:00−3n458777 0.1 1031574
15:00−4nne349288 0.4 1031405
18:00−6w129297 0.3 103550
21:00−7sw228065 0.3 103631
22 january, fri
fri2200:00−7ssw22710 0.0 103632
03:00−7sw22600 0.0 103635
06:00−6sw22490 0.0 103534
09:00−3ssw22560 0.0 103537
12:000sse23780 0.0 1033100
15:000se23770 0.0 103160
18:00−3s23630 0.0 103139
21:00−2s23510 0.0 103137
23 january, sat
sat2300:00−2s23460 0.0 102934
03:00−2ssw22360 0.0 102831
06:00−2wsw12330 0.0 102724
09:00+1wnw11460 0.0 102727
12:00+2n11930 0.0 102432
15:00+1n11840 0.0 102331
18:00−1wnw11670 0.0 102427
21:00−1ssw11580 0.0 102426